Location: Chuathbaluk
(61.5726°N, 159.2454°W)
Time: 07:48:11
(UTC+00:00)

NUDT-PHONESAT - Pass Details

Date: 25 January 2021
Orbit: 479 x 498 km, 97.4° (Epoch: 08 March)

Event Time Altitude Azimuth Distance (km) Brightness Sun altitude
Rises 05:11:07 0° 199° (SSW) 2,578 ? -19.1°
Reaches altitude 10° 05:13:31 10° 215° (SW) 1,703 ? -19.4°
Maximum altitude 05:16:29 23° 269° (W) 1,111 ? -19.8°
Drops below altitude 10° 05:19:29 10° 323° (NW) 1,721 ? -20.1°
Sets 05:21:55 0° 338° (NNW) 2,612 ? -20.4°
